Total_Precipitation_Accumulation
0.44 0.76 1.05 0.95 0.98 1.01 0.85 0.84 0.90 0.88 0.75 0.84 0.93 0.92 1.00 0.99 0.94 0.79 0.69 0.60 0.55 0.54 0.56 0.51 0.44 0.48 0.50 0.44 0.43 0.47 0.63 0.80 0.94 1.03 1.17 1.41 1.57 1.67 1.67 1.68 1.73 1.64 1.44 1.53
0.64 0.73 0.60 0.60 0.67 0.74 0.78 0.82 0.84 0.78 0.65 0.73 0.81 0.86 0.91 0.87 0.79 0.65 0.58 0.53 0.46 0.46 0.48 0.45 0.37 0.36 0.37 0.35 0.36 0.41 0.56 0.80 1.02 1.21 1.38 1.56 1.88 2.04 2.05 2.12 2.04 1.98 1.86 1.88
0.59 0.54 0.43 0.51 0.60 0.68 0.70 0.70 0.72 0.71 0.73 0.74 0.75 0.91 0.95 0.92 0.76 0.59 0.49 0.44 0.41 0.35 0.37 0.39 0.35 0.31 0.27 0.28 0.30 0.33 0.46 0.69 0.98 1.27 1.52 1.71 1.94 2.19 2.29 2.19 2.16 2.18 2.24 2.27
0.51 0.43 0.41 0.47 0.50 0.59 0.78 0.50 0.48 0.53 0.67 0.86 0.73 1.04 0.95 0.88 0.78 0.63 0.54 0.47 0.41 0.38 0.36 0.34 0.33 0.33 0.28 0.29 0.30 0.34 0.46 0.62 0.82 1.07 1.39 1.64 1.89 2.20 2.28 2.25 2.24 2.28 2.37 2.44
0.50 0.44 0.44 0.50 0.44 0.46 0.60 0.39 0.41 0.52 0.56 0.63 0.58 0.81 0.86 0.71 0.77 0.68 0.61 0.53 0.45 0.41 0.39 0.34 0.33 0.33 0.35 0.34 0.36 0.44 0.56 0.68 0.85 1.07 1.38 1.70 1.87 2.03 2.23 2.26 2.17 2.11 2.18 2.18
0.48 0.40 0.40 0.41 0.35 0.36 0.44 0.44 0.47 0.50 0.57 0.69 0.46 0.60 0.77 0.69 0.65 0.63 0.59 0.57 0.47 0.38 0.39 0.39 0.43 0.43 0.42 0.46 0.52 0.60 0.71 0.88 1.01 1.07 1.19 1.35 1.56 1.83 1.96 2.07 2.11 2.13 2.14 2.01
0.46 0.39 0.28 0.25 0.37 0.38 0.41 0.60 0.81 0.82 0.81 0.70 0.35 0.49 0.61 0.52 0.47 0.53 0.53 0.53 0.50 0.47 0.49 0.55 0.63 0.59 0.56 0.59 0.70 0.77 0.85 0.91 0.95 0.91 0.95 1.06 1.23 1.45 1.58 1.67 1.86 1.95 1.99 1.95
0.46 0.41 0.27 0.22 0.28 0.40 0.42 0.52 0.81 0.89 0.77 0.60 0.46 0.61 0.61 0.49 0.43 0.46 0.48 0.47 0.46 0.53 0.60 0.74 0.84 0.85 0.79 0.80 0.83 0.82 0.84 0.80 0.78 0.79 0.84 0.89 0.95 1.10 1.21 1.29 1.44 1.58 1.58 1.57
0.43 0.38 0.20 0.18 0.16 0.26 0.37 0.33 0.34 0.50 0.49 0.56 0.56 0.67 0.65 0.47 0.41 0.44 0.48 0.49 0.49 0.60 0.74 0.91 1.07 1.10 1.01 0.94 0.90 0.88 0.89 0.83 0.75 0.74 0.81 0.86 0.90 0.91 0.93 0.99 0.98 1.07 1.16 1.18
0.34 0.36 0.23 0.16 0.17 0.19 0.26 0.28 0.34 0.58 0.77 0.81 0.68 0.72 0.79 0.62 0.50 0.51 0.58 0.66 0.74 0.88 0.95 1.07 1.19 1.18 1.14 1.17 1.13 0.97 0.90 0.90 0.81 0.89 0.89 0.83 0.82 0.79 0.78 0.82 0.87 0.90 0.97 1.06
0.31 0.39 0.28 0.20 0.21 0.23 0.23 0.29 0.42 0.63 0.71 0.95 1.08 1.06 0.80 0.65 0.64 0.65 0.71 0.92 0.97 1.06 1.14 1.16 1.24 1.22 1.10 1.10 1.07 1.03 0.97 0.92 0.93 0.94 0.95 0.82 0.81 0.81 0.79 0.77 0.81 0.90 0.97 1.07
0.35 0.46 0.38 0.22 0.20 0.23 0.34 0.46 0.62 0.97 0.96 0.87 1.17 1.28 0.86 0.71 0.73 0.76 0.77 0.76 0.76 0.96 1.09 1.13 1.21 1.15 1.00 0.97 0.86 0.89 0.96 0.96 1.03 1.02 0.93 0.84 0.86 0.88 0.91 0.89 0.84 0.88 0.93 0.94
0.45 0.62 0.61 0.45 0.45 0.43 0.48 0.57 0.70 0.89 1.07 1.08 1.19 1.23 0.91 0.68 0.67 0.74 0.81 0.78 0.77 0.82 0.87 0.87 0.90 0.98 0.95 0.91 0.81 0.88 0.94 1.00 1.00 1.03 1.02 0.91 0.80 0.82 0.86 0.86 0.81 0.79 0.82 0.86
0.43 0.59 0.70 0.68 0.61 0.56 0.52 0.47 0.54 0.78 1.08 1.10 1.13 1.05 0.81 0.69 0.66 0.69 0.73 0.78 0.75 0.66 0.65 0.64 0.61 0.68 0.72 0.75 0.80 0.84 0.95 1.08 1.11 1.09 1.03 0.98 0.91 0.92 0.85 0.76 0.74 0.75 0.73 0.69
0.37 0.37 0.33 0.29 0.27 0.32 0.39 0.41 0.50 0.64 0.82 1.05 0.94 0.72 0.61 0.59 0.55 0.57 0.64 0.57 0.53 0.50 0.48 0.49 0.46 0.48 0.52 0.55 0.64 0.70 0.81 0.99 1.10 1.17 1.13 1.04 0.96 0.86 0.78 0.71 0.63 0.64 0.56 0.55
0.39 0.34 0.20 0.16 0.17 0.22 0.32 0.45 0.58 0.65 0.71 0.73 0.64 0.61 0.47 0.41 0.37 0.39 0.45 0.45 0.45 0.40 0.35 0.35 0.37 0.38 0.43 0.48 0.55 0.56 0.65 0.81 0.92 0.98 1.01 1.04 0.99 0.83 0.73 0.65 0.56 0.53 0.51 0.51
0.26 0.27 0.23 0.17 0.15 0.25 0.46 0.56 0.62 0.62 0.57 0.49 0.46 0.42 0.31 0.27 0.22 0.22 0.29 0.33 0.37 0.36 0.31 0.29 0.30 0.33 0.39 0.47 0.51 0.56 0.64 0.75 0.78 0.82 0.85 0.89 0.88 0.73 0.65 0.54 0.47 0.48 0.48 0.50
0.25 0.29 0.35 0.26 0.22 0.44 0.66 0.53 0.48 0.52 0.42 0.28 0.25 0.25 0.24 0.19 0.16 0.13 0.14 0.17 0.19 0.23 0.24 0.29 0.27 0.27 0.30 0.37 0.48 0.61 0.64 0.64 0.64 0.68 0.70 0.69 0.69 0.64 0.57 0.46 0.43 0.43 0.45 0.49
0.27 0.36 0.43 0.39 0.37 0.49 0.59 0.40 0.37 0.44 0.41 0.22 0.17 0.16 0.14 0.12 0.10 0.07 0.08 0.11 0.12 0.12 0.15 0.20 0.20 0.20 0.20 0.23 0.26 0.32 0.36 0.38 0.38 0.46 0.53 0.58 0.59 0.56 0.51 0.45 0.50 0.53 0.51 0.49
0.40 0.47 0.50 0.46 0.53 0.62 0.44 0.19 0.18 0.32 0.49 0.21 0.12 0.10 0.09 0.09 0.11 0.08 0.09 0.11 0.10 0.08 0.08 0.11 0.14 0.14 0.14 0.15 0.16 0.18 0.20 0.23 0.25 0.30 0.37 0.44 0.50 0.53 0.55 0.65 0.71 0.70 0.66 0.58
0.30 0.38 0.46 0.52 0.71 0.68 0.40 0.18 0.19 0.36 0.51 0.27 0.12 0.07 0.07 0.08 0.09 0.08 0.09 0.10 0.09 0.08 0.06 0.08 0.10 0.11 0.12 0.13 0.12 0.14 0.16 0.15 0.16 0.16 0.22 0.32 0.48 0.54 0.62 0.74 0.77 0.73 0.66 0.58
0.30 0.41 0.54 0.67 0.86 0.88 0.45 0.25 0.29 0.27 0.18 0.15 0.09 0.07 0.06 0.07 0.07 0.08 0.08 0.07 0.08 0.08 0.07 0.07 0.08 0.09 0.11 0.13 0.10 0.11 0.17 0.16 0.16 0.16 0.20 0.28 0.39 0.50 0.63 0.72 0.70 0.69 0.69 0.63
0.27 0.49 0.71 0.71 0.72 0.58 0.35 0.24 0.18 0.12 0.12 0.07 0.05 0.04 0.04 0.04 0.06 0.07 0.08 0.08 0.07 0.07 0.07 0.08 0.09 0.09 0.09 0.10 0.11 0.10 0.13 0.15 0.15 0.16 0.15 0.18 0.26 0.40 0.56 0.63 0.64 0.65 0.67 0.65
0.15 0.22 0.35 0.31 0.21 0.18 0.16 0.14 0.10 0.07 0.07 0.04 0.03 0.03 0.03 0.04 0.04 0.05 0.07 0.07 0.07 0.07 0.06 0.06 0.07 0.07 0.08 0.10 0.11 0.13 0.15 0.15 0.14 0.16 0.16 0.15 0.16 0.21 0.28 0.35 0.42 0.49 0.54 0.55
0.13 0.15 0.26 0.26 0.13 0.09 0.08 0.07 0.06 0.05 0.05 0.03 0.02 0.02 0.02 0.03 0.03 0.04 0.06 0.05 0.06 0.07 0.07 0.06 0.07 0.07 0.07 0.08 0.09 0.11 0.14 0.15 0.15 0.16 0.17 0.17 0.18 0.21 0.22 0.23 0.27 0.31 0.34 0.41
0.09 0.15 0.22 0.24 0.15 0.09 0.07 0.05 0.05 0.05 0.04 0.03 0.02 0.02 0.01 0.02 0.03 0.04 0.04 0.05 0.05 0.06 0.07 0.07 0.08 0.08 0.08 0.09 0.09 0.09 0.10 0.12 0.13 0.14 0.14 0.12 0.14 0.16 0.18 0.20 0.22 0.24 0.25 0.30